Tracking 19476 objects as of 17-Jan-2019
HD Live streaming from Space Station
objects crossing your sky now

FORMOSAT 3E

Track FORMOSAT 3E now!
10-day predictions
FORMOSAT 3E is classified as:


NORAD ID: 29051
Int'l Code: 2006-011E
Perigee: 755.8 km
Apogee: 850.6 km
Inclination: 72.0 °
Period: 100.8 minutes
Semi major axis: 7174 km
RCS: 0.58 m2 (medium)
Launch date: April 15, 2006
Source: Taiwan (Republic of China) (ROC)
Launch site: AIR FORCE WESTERN TEST RANGE (AFWTR)
aabbcc
Your satellite tracking list
Your tracking list is empty




NASA's NSSDC Master Catalog

Two Line Element Set (TLE):
1 29051U 06011E   19017.16334812  .00000004  00000-0  17383-4 0  9991
2 29051  72.0057  68.9858 0066061  99.6912 261.1694 14.28718058668305
Source of the keplerian elements: AFSPC